Location: Carnetin
(48.9010°N, 2.7059°E)
Time: 04:53:04
(UTC+00:00)

USA 229 - Pass Details

Date: 30 May 2022
Orbit: 938 x 1274 km, 63.4° (Epoch: 24 May)

Event Time Altitude Azimuth Distance (km) Brightness Sun altitude
Rises 01:43:53 0° 306° (NW) 4,047 6.8 -14.7°
Reaches altitude 10° 01:48:25 10° 281° (W) 3,149 6.0 -14.3°
Maximum altitude 01:51:29 13° 257° (WSW) 2,965 5.6 -14.1°
Enters shadow 01:53:15 12° 242° (WSW) 3,055 5.6 -13.9°
